Regional Weather Roundup
Issued by NWS Nashville, TN

Home | Current Version | Previous Version | Text Only | Print | Product List | Glossary On
Versions: 1 2 3 4 5 6 7 8 9 10 11 12 13 14 15 16 17 18 19 20 21 22 23 24 25 26 27
000
ASUS44 KOHX 310010
RWROHX
MIDDLE TENNESSEE HOURLY WEATHER ROUNDUP
NATIONAL WEATHER SERVICE NASHVILLE TN
700 PM CDT SAT JUL 30 2016

NOTE: "FAIR" INDICATES FEW OR NO CLOUDS BELOW 12,000 FEET WITH
NO SIGNIFICANT WEATHER AND/OR OBSTRUCTIONS TO VISIBILITY.

* THESE REPORTS ARE NOT UNDER NWS QUALITY CONTROL AND MAY NOT
  REPORT WEATHER SUCH AS PRECIPITATION AND FOG.


TNZ005>011-023>034-057-059-062>066-078-080-310100
...NORTHERN MIDDLE TENNESSEE...

CITY           SKY/WX    TMP DP  RH WIND       PRES   REMARKS
CLARKSVILLE    CLEAR     84  71  65 W8        29.96S
CROSSVILLE     CLOUDY    79  70  74 W7        30.05R
NASHVILLE      PTCLDY    85  69  58 W5        29.96S
SMYRNA         CLEAR     87  72  61 SW5       29.96F HX  93
SPARTA         CLEAR     86  73  66 CALM      29.99S HX  93
$$
TNZ056-058-060-061-075>077-079-093>097-310100
...SOUTHERN MIDDLE TENNESSEE...

CITY           SKY/WX    TMP DP  RH WIND       PRES   REMARKS
COLUMBIA       PTCLDY    86  72  62 W7        29.96S HX  92
FAYETTEVILLE   CLEAR     81  73  78 W6        30.00S
MCMINNVILLE    CLEAR     82  73  74 W5        30.00R
SHELBYVILLE    PTCLDY    88  73  62 CALM      29.98F HX  96
TULLAHOMA      CLEAR     82  70  65 SW6       30.01S
WINCHESTER     CLEAR     81  73  78 W3        30.00S
$$


...KEY TO REMARKS...
VSB - VISIBILITY IN MILES
WCI - WIND CHILL INDEX
HX  - HEAT INDEX





USA.gov is the U.S. government's official web portal to all federal, state and local government web resources and services.